Change the Weather History Date:

Thursday, October 13, 2011

  Actual Average (KLOZ) Record (KLOZ)
Temperature  
Mean Temperature 60 °F 58 °F  
Max Temperature 64 °F 70 °F 86 °F (2008)
Min Temperature 55 °F 46 °F 26 °F (1988)
Degree Days  
Heating Degree Days 6 8  
Month to date heating degree days 78  
Since 1 July heating degree days 125  
Cooling Degree Days 0 1  
Month to date cooling degree days 15  
Growing Degree Days 10 (Base 50)    
Moisture  
Dew Point 58 °F    
Average Humidity 94    
Maximum Humidity 100    
Minimum Humidity 88    
Precipitation  
Precipitation 0.00 in 0.09 in 1.29 in (1983)
Month to date precipitation 1.23  
Sea Level Pressure  
Sea Level Pressure 29.64 in    
Wind  
Wind Speed 3 mph (South)    
Max Wind Speed 14 mph    
Max Gust Speed 20 mph    
Visibility 8 miles    
Events      
T = Trace of Precipitation, MM = Missing Value Source: NWS Daily Summary

Daily Weather History Graph

Daily Weather History Graph

Search for Another Location

Airport or City:

Trip Planner

Search our weather history database for the weather conditions in past years. The results will help you decide how hot, cold, wet, or windy it might be!

Date:

Astronomy

Oct. 13, 2011 Rise Set
Actual Time 7:43 AM EDT 7:03 PM EDT
Civil Twilight 7:17 AM EDT 7:29 PM EDT
Nautical Twilight 6:46 AM EDT 7:59 PM EDT
Astronomical Twilight 6:16 AM EDT 8:30 PM EDT
Moon 7:41 PM EDT (10/13) 9:11 AM EDT (10/13)
Length of Visible Light 12h 12m
Length of Day
11h 19m
Full, 98% of the Moon is Illuminated
Oct 13
Full
Oct 19
Last Quarter
Oct 26
New
Nov 2
First Quarter
Nov 10
Full

Hourly Weather History & Observations

Time (EDT) Temp. Dew Point Humidity Pressure Visibility Wind Dir Wind Speed Gust Speed Precip Events Conditions
12:15 AM 55.4 °F 55.4 °F 100% 29.76 in 7.0 mi East 3.5 mph - N/A   Unknown
12:35 AM 55.4 °F 55.4 °F 100% 29.76 in 7.0 mi ESE 3.5 mph - N/A   Unknown
12:55 AM 55.4 °F 55.4 °F 100% 29.75 in 10.0 mi SE 3.5 mph - N/A   Unknown
1:15 AM 57.2 °F 55.4 °F 94% 29.75 in 10.0 mi Calm Calm - N/A   Unknown
1:35 AM 57.2 °F 55.4 °F 94% 29.74 in 10.0 mi Calm Calm - N/A   Unknown
1:55 AM 57.2 °F 55.4 °F 94% 29.73 in 10.0 mi Calm Calm - N/A   Unknown
2:15 AM 55.4 °F 55.4 °F 100% 29.73 in 10.0 mi East 3.5 mph - N/A   Unknown
2:35 AM 57.2 °F 55.4 °F 94% 29.72 in 7.0 mi East 3.5 mph - N/A   Unknown
2:55 AM 57.2 °F 55.4 °F 94% 29.72 in 7.0 mi Calm Calm - N/A   Unknown
3:15 AM 57.2 °F 55.4 °F 94% 29.71 in 10.0 mi ESE 3.5 mph - N/A   Unknown
3:35 AM 57.2 °F 57.2 °F 100% 29.70 in 10.0 mi SE 3.5 mph - N/A   Unknown
3:55 AM 57.2 °F 57.2 °F 100% 29.69 in 10.0 mi ESE 3.5 mph - N/A   Unknown
4:15 AM 59.0 °F 57.2 °F 94% 29.68 in 10.0 mi SSE 3.5 mph - N/A   Unknown
4:35 AM 60.8 °F 57.2 °F 88% 29.68 in 10.0 mi SSE 5.8 mph - N/A   Unknown
4:55 AM 60.8 °F 57.2 °F 88% 29.68 in 10.0 mi SSE 4.6 mph - N/A   Unknown
5:15 AM 60.8 °F 57.2 °F 88% 29.68 in 10.0 mi SSE 4.6 mph - N/A   Unknown
5:55 AM 60.8 °F 57.2 °F 88% 29.67 in 10.0 mi South 3.5 mph - N/A   Unknown
6:15 AM 60.8 °F 57.2 °F 88% 29.67 in 10.0 mi SSW 5.8 mph - N/A   Unknown
6:55 AM 60.8 °F 57.2 °F 88% 29.67 in 7.0 mi South 8.1 mph - N/A   Unknown
7:15 AM 60.8 °F 59.0 °F 94% 29.67 in 10.0 mi SSW 6.9 mph - N/A   Unknown
7:35 AM 60.8 °F 59.0 °F 94% 29.67 in 10.0 mi SSW 5.8 mph - N/A   Unknown
7:55 AM 59.0 °F 59.0 °F 100% 29.66 in 10.0 mi South 3.5 mph - N/A   Unknown
8:15 AM 60.8 °F 59.0 °F 94% 29.65 in 4.0 mi Calm Calm - N/A   Unknown
8:35 AM 59.0 °F 59.0 °F 100% 29.64 in 7.0 mi Calm Calm - N/A   Unknown
8:55 AM 59.0 °F 59.0 °F 100% 29.65 in 10.0 mi Calm Calm - N/A   Unknown
9:15 AM 60.8 °F 59.0 °F 94% 29.64 in 10.0 mi SSE 3.5 mph - N/A   Unknown
9:35 AM 60.8 °F 59.0 °F 94% 29.63 in 10.0 mi Calm Calm - N/A   Unknown
9:55 AM 60.8 °F 59.0 °F 94% 29.63 in 10.0 mi Calm Calm - N/A   Unknown
10:15 AM 60.8 °F 59.0 °F 94% 29.62 in 10.0 mi Calm Calm - N/A   Unknown
10:35 AM 60.8 °F 59.0 °F 94% 29.63 in 10.0 mi SE 3.5 mph - N/A   Unknown
10:55 AM 60.8 °F 59.0 °F 94% 29.62 in 5.0 mi ESE 3.5 mph - N/A   Unknown
11:15 AM 60.8 °F 59.0 °F 94% 29.62 in 2.5 mi Calm Calm - N/A   Unknown
11:35 AM 60.8 °F 60.8 °F 100% 29.61 in 3.0 mi East 3.5 mph - N/A   Unknown
11:55 AM 60.8 °F 59.0 °F 94% 29.61 in 1.5 mi Calm Calm - N/A   Unknown
12:15 PM 60.8 °F 60.8 °F 100% 29.61 in 3.0 mi Calm Calm - N/A   Unknown
12:35 PM 60.8 °F 60.8 °F 100% 29.60 in 5.0 mi SE 3.5 mph - N/A   Unknown
12:55 PM 62.6 °F 60.8 °F 94% 29.60 in 10.0 mi SSE 4.6 mph - N/A   Unknown
1:15 PM 62.6 °F 60.8 °F 94% 29.59 in 10.0 mi SW 4.6 mph - N/A   Unknown
1:35 PM 64.4 °F 60.8 °F 88% 29.57 in 10.0 mi Calm Calm - N/A   Unknown
1:55 PM 64.4 °F 60.8 °F 88% 29.56 in 10.0 mi SSE 3.5 mph - N/A   Unknown
2:15 PM 64.4 °F 60.8 °F 88% 29.55 in 10.0 mi South 3.5 mph - N/A   Unknown
2:35 PM 64.4 °F 60.8 °F 88% 29.55 in 10.0 mi West 4.6 mph - N/A   Unknown
2:55 PM 60.8 °F 59.0 °F 94% 29.55 in 2.5 mi West 3.5 mph - N/A   Unknown
3:15 PM 62.6 °F 59.0 °F 88% 29.54 in 10.0 mi WSW 3.5 mph - N/A   Unknown
3:35 PM 62.6 °F 60.8 °F 94% 29.54 in 10.0 mi West 4.6 mph - N/A   Unknown
3:55 PM 64.4 °F 60.8 °F 88% 29.55 in 10.0 mi WSW 13.8 mph 19.6 mph N/A   Unknown
4:15 PM 59.0 °F 59.0 °F 100% 29.55 in 4.0 mi West 5.8 mph - N/A   Unknown
4:35 PM 60.8 °F 59.0 °F 94% 29.55 in 4.0 mi West 8.1 mph - N/A   Unknown
4:55 PM 60.8 °F 59.0 °F 94% 29.56 in 10.0 mi West 8.1 mph - N/A   Unknown
5:15 PM 60.8 °F 59.0 °F 94% 29.56 in 10.0 mi WSW 4.6 mph - N/A   Unknown
5:35 PM 60.8 °F 59.0 °F 94% 29.56 in 10.0 mi WSW 5.8 mph - N/A   Unknown
5:55 PM 60.8 °F 59.0 °F 94% 29.56 in 10.0 mi SW 3.5 mph - N/A   Unknown
6:15 PM 60.8 °F 59.0 °F 94% 29.56 in 10.0 mi WSW 5.8 mph - N/A   Unknown
6:35 PM 60.8 °F 59.0 °F 94% 29.56 in 10.0 mi SSW 4.6 mph - N/A   Unknown
6:55 PM 59.0 °F 59.0 °F 100% 29.57 in 10.0 mi SSW 6.9 mph - N/A   Unknown
7:15 PM 59.0 °F 59.0 °F 100% 29.57 in 10.0 mi SW 5.8 mph - N/A   Unknown
7:35 PM 59.0 °F 59.0 °F 100% 29.57 in 10.0 mi SW 6.9 mph - N/A   Unknown
7:55 PM 59.0 °F 59.0 °F 100% 29.58 in 10.0 mi SW 5.8 mph - N/A   Unknown
8:15 PM 59.0 °F 57.2 °F 94% 29.58 in 10.0 mi SW 6.9 mph - N/A   Unknown
8:35 PM 59.0 °F 57.2 °F 94% 29.59 in 10.0 mi SW 6.9 mph - N/A   Unknown
8:55 PM 59.0 °F 57.2 °F 94% 29.59 in 10.0 mi SW 6.9 mph - N/A   Unknown
9:15 PM 59.0 °F 57.2 °F 94% 29.60 in 10.0 mi WSW 8.1 mph - N/A   Unknown
9:35 PM 59.0 °F 57.2 °F 94% 29.60 in 10.0 mi WSW 9.2 mph - N/A   Unknown
9:55 PM 59.0 °F 57.2 °F 94% 29.61 in 10.0 mi West 9.2 mph - N/A   Unknown
10:15 PM 59.0 °F 57.2 °F 94% 29.61 in 7.0 mi West 8.1 mph - N/A   Unknown
10:35 PM 59.0 °F 57.2 °F 94% 29.61 in 5.0 mi West 8.1 mph - N/A   Unknown
10:55 PM 59.0 °F 57.2 °F 94% 29.61 in 7.0 mi WSW 6.9 mph - N/A   Unknown
11:15 PM 59.0 °F 57.2 °F 94% 29.61 in 7.0 mi WSW 9.2 mph - N/A   Unknown
11:35 PM 59.0 °F 57.2 °F 94% 29.61 in 7.0 mi WSW 8.1 mph - N/A   Unknown
11:55 PM 59.0 °F 57.2 °F 94% 29.62 in 10.0 mi West 13.8 mph 17.3 mph N/A   Unknown